Satellite: CP6
Catalog number: 35004
Epoch time:      10342.80738742
Element set:    0458
Inclination:      040.4613 deg
RA of node:       226.4522 deg
Eccentricity:    0.0024469
Arg of perigee:   267.1123 deg
Mean anomaly:     092.6980 deg
Mean motion:   15.51674055 rev/day
Decay rate:     1.8099e-04 rev/day^2
Epoch rev:           08779
Checksum:              310

Satellite: AEROCUB3
Catalog number: 35005
Epoch time:      10343.82412639
Element set:     553
Inclination:      040.4587 deg
RA of node:       198.5894 deg
Eccentricity:    0.0024470
Arg of perigee:   297.0840 deg
Mean anomaly:     062.7505 deg
Mean motion:   15.80787148 rev/day
Decay rate:    2.58325e-03 rev/day^2
Epoch rev:            8819
Checksum:              325

Satellite: METEOR-M
Catalog number: 35865
Epoch time:      10343.71142920
Element set:     908
Inclination:      098.7359 deg
RA of node:       036.0397 deg
Eccentricity:    0.0001678
Arg of perigee:   210.9275 deg
Mean anomaly:     149.1757 deg
Mean motion:   14.21833451 rev/day
Decay rate:       1.76e-06 rev/day^2
Epoch rev:            6366
Checksum:              309

Satellite: RS-38
Catalog number: 35869
Epoch time:      10343.80424146
Element set:     919
Inclination:      098.7345 deg
RA of node:       036.1725 deg
Eccentricity:    0.0004041
Arg of perigee:   212.0080 deg
Mean anomaly:     148.0824 deg
Mean motion:   14.21995414 rev/day
Decay rate:       1.77e-06 rev/day^2
Epoch rev:            6368
Checksum:              298

/EX


_______________________________________________
Via the Keps mailing list courtesy of AMSAT-NA
http://amsat.org/mailman/listinfo/keps

--- ViaMAIL!/WC v1.60d
 * Origin: Chowdanet (401-724-4410) telnet://chowdanet.com  (1:323/120)